Location: St. Louis
(38.6270°N, 90.1994°W)
Time: 13:10:00
(UTC-05:00)

FENGYUN 1C DEB - Visible Passes

Search period start: 13 August 2022 00:00
Search period end: 23 August 2022 00:00
Orbit: 795 x 867 km, 98.8° (Epoch: 12 August)

Date Brightness Start Highest point End Pass type
(mag) Time Alt. Az. Time Alt. Az. Time Alt. Az.
13 Aug ? 21:12:46 10° S 21:18:08 47° W 21:23:30 10° NNW visible
14 Aug ? 20:55:01 10° S 21:00:34 69° WSW 21:06:06 10° NNW visible
15 Aug ? 20:37:28 10° SSE 20:43:03 84° ENE 20:48:36 10° NNW visible
15 Aug ? 22:22:08 10° WSW 22:23:55 11° W 22:25:41 10° WNW visible
16 Aug ? 20:20:06 10° SSE 20:25:34 59° ENE 20:30:59 10° N visible
16 Aug ? 22:02:35 10° SW 22:06:11 17° W 22:09:45 10° NW visible
17 Aug ? 21:43:58 10° SSW 21:48:29 25° W 21:53:00 10° NW visible
18 Aug ? 21:25:46 10° SSW 21:30:51 36° W 21:35:54 10° NNW visible
19 Aug ? 21:07:50 10° S 21:13:14 52° W 21:18:37 10° NNW visible
20 Aug ? 20:50:08 10° S 20:55:42 76° WSW 21:01:13 10° NNW visible
21 Aug ? 20:32:39 10° SSE 20:38:11 76° ENE 20:43:40 10° N visible
21 Aug ? 22:16:34 10° WSW 22:18:58 13° W 22:21:22 10° WNW visible
22 Aug ? 20:15:21 10° SSE 20:20:43 53° ENE 20:26:01 10° N visible
22 Aug ? 21:57:23 10° SW 22:01:14 19° W 22:05:06 10° NW visible
